This demonstration page uses our WeatherBlox Daily Observations layout. Learn more.

Left ArrowRight Arrow

41.86663, -103.66717

Hourly Observations for September 9, 2016

Temp ( °F °C ) Dew Point ( °F °C ) Humidity (%) Winds ( mph kmh ) Pressure ( in mb ) Visibility ( mi km ) Precip ( " mm )
12:53 am 00:53 Clear 58 14.4 44 6.7 60 60 SW 3 6 29.82 1010 10 16 0.00 0.00
1:53 am 01:53 Clear 59 15 44 6.7 58 58 Calm 29.83 1010 10 16 0.00 0.00
2:53 am 02:53 Clear 59 15 44 6.7 58 58 NW 9 15 29.86 1011 10 16 0.00 0.00
3:53 am 03:53 Clear 58 14.4 40 4.4 51 51 NW 8 13 29.88 1012 10 16 0.00 0.00
4:53 am 04:53 Clear 57 13.9 40 4.4 53 53 WNW 8 13 29.91 1013 10 16 0.00 0.00
5:53 am 05:53 Clear 53 11.7 41 5 64 64 undefined N/A 29.95 1014 10 16 0.00 0.00
6:53 am 06:53 Sunny 50 10 41 5 71 71 NW 8 13 30.02 1017 10 16 0.00 0.00
7:53 am 07:53 Sunny 55 12.8 42 5.6 62 62 WNW 7 11 30.04 1017 10 16 0.00 0.00
8:53 am 08:53 Sunny 62 16.7 41 5 46 46 WNW 8 13 30.06 1018 10 16 0.00 0.00
9:24 am 09:24 Sunny 64 18 39 4 40 40 N 15 24 30.00 1016 10 16 0.00 0.00
9:53 am 09:53 Sunny 66 18.9 39 3.9 37 37 NW 13 20 30.08 1019 10 16 0.00 0.00
10:00 am 10:00 Sunny 66 19 39 4 37 37 NNW 9 15 30.00 1016 10 16 0.00 0.00
10:53 am 10:53 Partly Cloudy 68 20 39 3.9 35 35 NNW 16 26 30.09 1019 10 16 0.00 0.00
11:53 am 11:53 Cloudy 64 17.8 38 3.3 38 38 N 18 30 30.12 1020 10 16 0.00 0.00
12:53 pm 12:53 Cloudy 64 17.8 37 2.8 37 37 N 22 35 30.16 1022 10 16 0.00 0.00
1:53 pm 13:53 Cloudy 63 17.2 36 2.2 37 37 N 20 31 30.19 1022 10 16 0.00 0.00
2:53 pm 14:53 Cloudy 62 16.7 35 1.7 37 37 N 12 19 30.20 1023 10 16 0.00 0.00
3:53 pm 15:53 Partly Cloudy 65 18.3 33 0.6 31 31 WNW 16 26 30.19 1023 10 16 0.00 0.00
4:53 pm 16:53 Sunny 65 18.3 32 0 29 29 NW 20 31 30.21 1023 10 16 0.00 0.00
5:53 pm 17:53 Sunny 64 17.8 34 1.1 33 33 NW 18 30 30.23 1024 10 16 0.00 0.00
6:53 pm 18:53 Sunny 60 15.6 34 1.1 38 38 NNW 12 19 30.26 1025 10 16 0.00 0.00
7:53 pm 19:53 Clear 52 11.1 35 1.7 53 53 NNW 8 13 30.28 1025 10 16 0.00 0.00
8:53 pm 20:53 Clear 53 11.7 34 1.1 48 48 NNW 10 17 30.27 1025 10 16 0.00 0.00
9:53 pm 21:53 Clear 51 10.6 35 1.7 54 54 WSW 6 9 30.27 1025 10 16 0.00 0.00
10:53 pm 22:53 Clear 46 7.8 35 1.7 66 66 Calm 30.28 1026 10 16 0.00 0.00
11:53 pm 23:53 Clear 43 6.1 36 2.2 76 76 NW 7 11 30.30 1026 10 16 0.00 0.00

Powered by AerisWeather